Regional Weather Roundup
Issued by NWS

Home | Current Version | Previous Version | Graphics & Text | Print | Product List | Glossary On
Versions: 1 2 3 4 5 6 7 8 9 10 11 12 13 14 15 16 17 18 19 20 21 22 23 24 25 26 27 28 29 30 31 32 33 34 35 36 37 38 39 40 41 42 43 44 45 46 47 48 49 50
000
ASUS43 KDMX 202307
RWRIA

WEATHER ROUNDUP FOR IOWA
NATIONAL WEATHER SERVICE DES MOINES IA
600 PM CDT WED AUG 20 2014

NOTE: "FAIR" INDICATES FEW OR NO CLOUDS BELOW 12,000 FEET WITH NO
SIGNIFICANT WEATHER AND/OR OBSTRUCTIONS TO VISIBILITY.

* - THESE STATIONS ARE NOT NWS STATIONS...THUS NOT UNDER NWS
QUALITY CONTROL.  THEY ALSO DO NOT REPORT WEATHER SUCH
AS PRECIPITATION OR FOG.

IAZ001>003-012>014-020>022-031>034-043>046-210000-
   NORTHWEST IOWA

CITY           SKY/WX    TMP DP  RH WIND       PRES   REMARKS
CARROLL *      SUNNY     79  73  83 SE8       29.83F HX  82
CHEROKEE *     CLOUDY    77  73  88 S7        29.80R
DENISON *      SUNNY     82  75  78 S15       29.79F HX  89
LE MARS *      SUNNY     77  73  88 SE10G18   29.76F
ORANGE CITY *  SUNNY     77  72  83 E3        29.80S
SHELDON *      SUNNY     72  70  94 CALM      29.82R
SIOUX CITY     PTSUNNY   81  74  79 SE13      29.75F HX  86
SPENCER        LGT RAIN  74  68  81 SE6       29.83R
STORM LAKE *   SUNNY     77  75  94 S12G20    29.81S
$$

IAZ055>058-069>071-079>083-090>094-210000-
   SOUTHWEST IOWA

CITY           SKY/WX    TMP DP  RH WIND       PRES   REMARKS
ATLANTIC *     SUNNY     84  75  74 S13G22    29.82S HX  92
AUDUBON *      SUNNY     88  79  74 S12       29.85F HX 102
CLARINDA *     SUNNY     88  75  66 SE14      29.83F HX  97
COUNCIL BLFS * SUNNY     88  77  70 SE15G24   29.79F HX 100
CRESTON *      SUNNY     84  75  74 SE10G17   29.87S HX  92
HARLAN  *      MOSUNNY   84  75  74 SE13      29.85S HX  92
LAMONI         SUNNY     85  74  69 S12G18    29.87F HX  92
RED OAK *      MOSUNNY   88  75  66 S16G25    29.81F HX  97
SHENANDOAH *   SUNNY     88  75  66 SE15      29.81S HX  97
$$

IAZ047>049-059>061-072>074-084-210000-
   CENTRAL IOWA

CITY           SKY/WX    TMP DP  RH WIND       PRES   REMARKS
AMES           CLOUDY    77  72  84 S5        29.86R
ANKENY *       SUNNY     81  73  78 S7        29.85S HX  85
CHARITON *     SUNNY     84  75  74 S12       29.88S HX  92
DES MOINES     PTSUNNY   82  73  74 S7        29.85F HX  87
GRINNELL*      CLOUDY    77  72  83 SE6       29.89S
KNOXVILLE *    SUNNY     84  73  70 S10       29.86F HX  91
MARSHALLTOWN   CLOUDY    75  70  84 SE5       29.86S
PELLA *        CLOUDY    82  73  74 S8        29.88F HX  88
PERRY *          N/A     79  73  83 SE5       29.85R HX  82
$$

IAZ004>006-015-016-023>025-035-036-210000-
   NORTH CENTRAL IOWA

CITY           SKY/WX    TMP DP  RH WIND       PRES   REMARKS
ALGONA *       SUNNY     75  68  78 SE8       29.84F
CLARION *      SUNNY     75  68  78 SE8       29.86F
ESTHERVILLE    CLOUDY    74  68  81 SE8       29.83F
FORT DODGE *   CLOUDY    73  70  88 SE7       29.84F
MASON CITY     CLOUDY    75  68  78 SE8       29.89S
FOREST CITY *  SUNNY     75  68  78 SE8       29.87S
IOWA FALLS *     N/A     73  66  78 CALM      29.89S
$$

IAZ007>011-017>019-026>030-037>042-050>054-066-210000-
   NORTHEAST IOWA

CITY           SKY/WX    TMP DP  RH WIND       PRES   REMARKS
CEDAR RAPIDS   CLOUDY    74  70  87 S9        29.90R
CHARLES CITY * PTSUNNY   73  68  83 S7        29.90R
CLINTON *      CLOUDY    73  66  78 SW9       29.92F
DECORAH *      SUNNY     81  70  69 SW7       29.88S HX  84
DUBUQUE        CLOUDY    75  69  81 SW15      29.91R
MONTICELLO *   SUNNY     73  70  88 CALM      29.90S
OELWEIN *      MOSUNNY   73  70  88 S8        29.91S
WATERLOO       LGT RAIN  73  68  84 S5        29.89R
$$

IAZ064-065-067-068-078-210000-
   EAST CENTRAL IOWA

CITY           SKY/WX    TMP DP  RH WIND       PRES   REMARKS
DAVENPORT      CLOUDY    75  67  76 W9        29.92F
IOWA CITY      CLOUDY    76  71  85 S8        29.90F
MT. PLEASANT * MOSUNNY   82  70  65 S3        29.91F HX  86
MUSCATINE *    SUNNY     77  72  83 S6        29.90F
QUAD CITIES    CLOUDY    75  68  78 S5        29.89F
$$

IAZ062-063-075>077-085>089-095>099-210000-
   SOUTHEAST IOWA

CITY           SKY/WX    TMP DP  RH WIND       PRES   REMARKS
BURLINGTON     MOSUNNY   80  73  79 S5        29.92R HX  84
FAIRFIELD *    SUNNY     81  72  74 SE6       29.91S HX  84
FORT MADISON * SUNNY     82  75  78 S8        29.92S HX  89
KEOKUK *       SUNNY     82  75  78 S9        29.90S HX  89
OSKALOOSA *      N/A     81  72  74 S9        29.90S HX  84
CENTERVILLE *  SUNNY     82  75  78 SE7       29.90F HX  89
OTTUMWA        CLOUDY    81  72  74 S6        29.89S HX  85
WASHINGTON *   SUNNY     77  73  88 SE6       29.91S
$$

ABBREVIATIONS USED IN REMARKS
   TC - TEMPERATURES IN CELSIUS
  WCI - WIND CHILL INDEX
   HX - HEAT INDEX
  VSB - VISIBILITY
$$




USA.gov is the U.S. government's official web portal to all federal, state and local government web resources and services.